Weather in Yutsa

Russia / Stavropol Krai     43°58′56″N   43°00′43″E
temp.,
°C
wind,
m/s
gust,
m/s
humid.,
%
clouds,
%
prec.,
mm/h
press.,
hPa
HPBL,
m
16 may, sun
sun1600:00+17sw2278100 0.1 101211
03:00+16sw2280100 0.1 101113
06:00+17ssw1179100 0.0 101019
09:00+22e356616 0.0 1009581
12:00+24ese67602 0.0 10081109
15:00+25ese675612 0.0 10061319
18:00+22ese3667100 0.0 1006336
21:00+18sse3481100 0.9 100658
17 may, mon
mon1700:00+17sse227987 0.0 100519
03:00+16s2263100 0.0 100413
06:00+18s21580 0.0 100515
09:00+22n215152 0.0 1005368
12:00+25nnw3351100 0.0 10061110
15:00+25n3355100 0.0 10061564
18:00+18w3491100 3.4 1007158
21:00+15wsw349099 12.7 1009121
18 may, tue
tue1800:00+14wnw4892100 2.2 1008232
03:00+14wnw51196100 2.9 1009755
06:00+13wnw41097100 0.6 1010535
09:00+16nw6879100 0.7 1011806
12:00+18nw466593 0.0 1010960
15:00+20n336087 0.6 10101316
18:00+17sw0180100 2.6 101282
21:00+14wnw2496100 6.4 1013153
19 may, wed
wed1900:00+13s11900 0.9 101213
03:00+12s118910 0.9 101111
06:00+14sse1183100 0.0 101158
09:00+13wnw51090100 2.7 1014711
12:00+17n337168 0.1 1014988
15:00+16n2278100 0.4 1016587
18:00+14n1191100 0.8 101798
21:00+13ene119599 1.4 101850
20 may, thu
thu2000:00+13ese129276 0.4 101968
03:00+12se249248 0.4 1019115
06:00+12ese389570 0.0 1020545
09:00+14se697548 0.1 1019725
12:00+19ese56610 0.0 10171025
15:00+20ese77584 0.0 10171166
18:00+18ese597210 0.0 1017736
21:00+15se411770 0.0 1017299